Starlink 5636

operational
NORAD ID: 55454 Int'l Des: 2023-015 Owner: SPXS Country: US Constellation: starlink
LEOCIRCULAR

Starlink 5636について

説明を読み込み中...

リアルタイム位置

3D地球を読み込み中...

次回通過

高度履歴

Altitude vs Time

uPlot chart will show altitude changes over time

軌道要素

1 55454U 23015F 25351.27064009 -.00004262 00000-0 -30045-3 0 9999
2 55454 43.0041 54.0284 0002041 270.9859 89.0749 15.02553363158359
Epoch: Dec 17, 2025 • Age: 11 hours

現在のステータス

高度 558.5 km
速度 7.59 km/s
衛星直下点 14.91°N, 74.95°E
打ち上げ日 Feb 2, 2023
運用期間 2.8 years
タイプ internet

技術仕様

分類 Payload
質量 305.00 kg
乾燥質量 290.00 kg
総質量 305.00 kg
長さ 0.20 m
直径 2.80 m
スパン 9.00 m
形状 Box + pan
製造者 SPXS
バスタイプ Starlink
フェーズステータス In Orbit
所有者/国 SPXS/US

大規模コンステレーション

Loading constellations...